| time (UTC) | temp F | wind direction | speed knots | gust knots | rain 1hr in | rain 24hr in | rain mn in | humidity % | barometer mb |
| 20260506113057 | 60 | 65 | 5.2 | 10.4 | 0.00 | 0.00 | 0.00 | 48 | 1014.4 |
| 20260506112601 | 61 | 360 | 1.7 | 9.6 | 0.00 | 0.00 | 0.00 | 51 | 1014.6 |
| 20260506112059 | 60 | 279 | 3.5 | 9.6 | 0.00 | 0.00 | 0.00 | 54 | 1014.5 |
| 20260506111600 | 60 | 44 | 3.5 | 8.7 | 0.00 | 0.00 | 0.00 | 51 | 1014.5 |
| 20260506111058 | 60 | 349 | 1.7 | 7.8 | 0.00 | 0.00 | 0.00 | 56 | 1014.6 |
| 20260506110601 | 59 | 101 | 2.6 | 8.7 | 0.00 | 0.00 | 0.00 | 58 | 1014.5 |
| 20260506110058 | 59 | 100 | 5.2 | 8.7 | 0.00 | 0.00 | 0.00 | 57 | 1014.6 |
| 20260506105603 | 59 | 13 | 1.7 | 8.7 | 0.00 | 0.00 | 0.00 | 56 | 1014.5 |
| 20260506105059 | 58 | 322 | 3.5 | 8.7 | 0.00 | 0.00 | 0.00 | 57 | 1014.6 |
| 20260506104557 | 58 | 349 | 2.6 | 7.8 | 0.00 | 0.00 | 0.00 | 60 | 1014.6 |
| 20260506104058 | 57 | 65 | 2.6 | 7.8 | 0.00 | 0.00 | 0.00 | 61 | 1014.5 |
| 20260506103600 | 57 | 38 | 1.7 | 7.0 | 0.00 | 0.00 | 0.00 | 58 | 1014.6 |
| 20260506103057 | 57 | 285 | 2.6 | 8.7 | 0.00 | 0.00 | 0.00 | 58 | 1014.5 |
| 20260506102559 | 56 | 75 | 3.5 | 8.7 | 0.00 | 0.00 | 0.00 | 59 | 1014.6 |
| 20260506102059 | 56 | 352 | 3.5 | 7.8 | 0.00 | 0.00 | 0.00 | 57 | 1014.6 |
| 20260506101558 | 57 | 69 | 2.6 | 9.6 | 0.00 | 0.00 | 0.00 | 57 | 1014.6 |
| 20260506101057 | 56 | 352 | 2.6 | 9.6 | 0.00 | 0.00 | 0.00 | 63 | 1014.5 |
| 20260506100557 | 56 | 331 | 3.5 | 9.6 | 0.00 | 0.00 | 0.00 | 62 | 1014.6 |
| 20260506100058 | 56 | 331 | 2.6 | 7.8 | 0.00 | 0.00 | 0.00 | 64 | 1014.6 |
| 20260506095557 | 56 | 36 | 3.5 | 7.8 | 0.00 | 0.00 | 0.00 | 59 | 1014.6 |
| 20260506095057 | 56 | 119 | 2.6 | 7.8 | 0.00 | 0.00 | 0.00 | 60 | 1014.7 |
| 20260506094556 | 56 | 49 | 0.9 | 10.4 | 0.00 | 0.00 | 0.00 | 59 | 1014.7 |
| 20260506094057 | 55 | 58 | 4.3 | 10.4 | 0.00 | 0.00 | 0.00 | 57 | 1014.7 |
| 20260506093557 | 56 | 45 | 1.7 | 8.7 | 0.00 | 0.00 | 0.00 | 57 | 1014.6 |
| 20260506093111 | 56 | 22 | 3.5 | 8.7 | 0.00 | 0.00 | 0.00 | 56 | 1014.5 |
| 20260506092557 | 56 | 27 | 2.6 | 8.7 | 0.00 | 0.00 | 0.00 | 61 | 1014.5 |
| 20260506092057 | 56 | 94 | 0.9 | 7.8 | 0.00 | 0.00 | 0.00 | 61 | 1014.4 |
| 20260506091558 | 55 | 46 | 3.5 | 9.6 | 0.00 | 0.00 | 0.00 | 59 | 1014.5 |
| 20260506091057 | 55 | 78 | 4.3 | 9.6 | 0.00 | 0.00 | 0.00 | 61 | 1014.5 |
| 20260506090557 | 55 | 79 | 5.2 | 9.6 | 0.00 | 0.00 | 0.00 | 60 | 1014.5 |
| 20260506090113 | 54 | 94 | 2.6 | 8.7 | 0.00 | 0.00 | 0.00 | 61 | 1014.5 |
| 20260506085558 | 54 | 69 | 2.6 | 8.7 | 0.00 | 0.00 | 0.00 | 60 | 1014.4 |
| 20260506085059 | 54 | 78 | 1.7 | 9.6 | 0.00 | 0.00 | 0.00 | 66 | 1014.5 |
| 20260506084558 | 53 | 55 | 4.3 | 10.4 | 0.00 | 0.00 | 0.00 | 62 | 1014.4 |
| 20260506084058 | 53 | 102 | 5.2 | 10.4 | 0.00 | 0.00 | 0.00 | 64 | 1014.5 |
| 20260506083600 | 52 | 22 | 3.5 | 9.6 | 0.00 | 0.00 | 0.00 | 63 | 1014.5 |
| 20260506083059 | 52 | 62 | 5.2 | 10.4 | 0.00 | 0.00 | 0.00 | 62 | 1014.5 |
| 20260506082601 | 52 | 69 | 5.2 | 11.3 | 0.00 | 0.00 | 0.00 | 63 | 1014.5 |
| 20260506082058 | 52 | 52 | 5.2 | 11.3 | 0.00 | 0.00 | 0.00 | 65 | 1014.5 |
| 20260506081558 | 52 | 55 | 4.3 | 13.0 | 0.00 | 0.00 | 0.00 | 65 | 1014.5 |
| 20260506081058 | 51 | 79 | 7.0 | 13.0 | 0.00 | 0.00 | 0.00 | 64 | 1014.6 |
| 20260506080558 | 51 | 50 | 6.1 | 11.3 | 0.00 | 0.00 | 0.00 | 63 | 1014.5 |
| 20260506080110 | 51 | 65 | 5.2 | 12.2 | 0.00 | 0.00 | 0.00 | 64 | 1014.5 |
| 20260506073110 | 50 | 71 | 4.3 | 13.0 | 0.00 | 0.00 | 0.00 | 70 | 1014.4 |
| 20260506072559 | 50 | 91 | 4.3 | 13.0 | 0.00 | 0.00 | 0.00 | 71 | 1014.4 |
| 20260506072058 | 50 | 42 | 5.2 | 13.0 | 0.00 | 0.00 | 0.00 | 71 | 1014.4 |
| 20260506071600 | 50 | 0 | 3.5 | 8.7 | 0.00 | 0.00 | 0.00 | 73 | 1014.3 |
| 20260506071058 | 50 | 17 | 1.7 | 7.0 | 0.00 | 0.00 | 0.00 | 73 | 1014.3 |
| 20260506070558 | 50 | 59 | 2.6 | 7.0 | 0.00 | 0.00 | 0.00 | 73 | 1014.2 |
| 20260506062100 | 50 | 350 | 1.7 | 3.5 | 0.00 | 0.00 | 0.00 | 77 | 1014.0 |
| 20260506061604 | 49 | 336 | 1.7 | 3.5 | 0.00 | 0.00 | 0.00 | 77 | 1014.0 |
| 20260506061059 | 49 | 38 | 0.0 | 3.5 | 0.00 | 0.00 | 0.00 | 76 | 1014.0 |
| 20260506060558 | 49 | 82 | 0.0 | 3.5 | 0.00 | 0.00 | 0.00 | 76 | 1013.9 |
| 20260506051058 | 49 | 0 | 1.7 | 6.1 | 0.00 | 0.00 | 0.00 | 74 | 1013.7 |
| 20260506050558 | 49 | 101 | 2.6 | 6.1 | 0.00 | 0.00 | 0.00 | 74 | 1013.6 |
| 20260506050103 | 49 | 119 | 1.7 | 8.7 | 0.00 | 0.00 | 0.00 | 74 | 1013.6 |
| 20260506045059 | 49 | 86 | 5.2 | 11.3 | 0.00 | 0.00 | 0.00 | 73 | 1013.5 |
| 20260506044617 | 50 | 87 | 4.3 | 13.0 | 0.00 | 0.00 | 0.00 | 73 | 1013.5 |
| 20260506044058 | 50 | 52 | 7.0 | 13.0 | 0.00 | 0.00 | 0.00 | 72 | 1013.4 |
| 20260506043602 | 50 | 82 | 6.1 | 13.0 | 0.00 | 0.00 | 0.00 | 73 | 1013.4 |
| 20260506043103 | 50 | 51 | 4.3 | 11.3 | 0.00 | 0.00 | 0.00 | 73 | 1013.4 |
| 20260506042558 | 50 | 74 | 5.2 | 9.6 | 0.00 | 0.00 | 0.00 | 74 | 1013.3 |
| 20260506042058 | 50 | 90 | 2.6 | 9.6 | 0.00 | 0.00 | 0.00 | 75 | 1013.3 |
| 20260506041610 | 50 | 61 | 5.2 | 9.6 | 0.00 | 0.00 | 0.00 | 76 | 1013.3 |
| 20260506041059 | 50 | 49 | 1.7 | 5.2 | 0.00 | 0.00 | 0.00 | 79 | 1013.3 |
| 20260506040557 | 50 | 0 | 0.0 | 4.3 | 0.00 | 0.00 | 0.00 | 80 | 1013.4 |
| 20260506035558 | 50 | 152 | 0.0 | 2.6 | 0.00 | 0.00 | 0.00 | 80 | 1013.3 |
| 20260506035058 | 50 | 0 | 0.0 | 2.6 | 0.00 | 0.00 | 0.00 | 80 | 1013.3 |
| 20260506034611 | 51 | 0 | 0.0 | 2.6 | 0.00 | 0.00 | 0.00 | 80 | 1013.3 |
| 20260506034057 | 51 | 352 | 0.9 | 3.5 | 0.00 | 0.00 | 0.00 | 80 | 1013.3 |
| 20260506033558 | 51 | 347 | 1.7 | 3.5 | 0.00 | 0.00 | 0.00 | 79 | 1013.3 |
| 20260506033058 | 51 | 0 | 0.9 | 4.3 | 0.00 | 0.00 | 0.00 | 79 | 1013.3 |
| 20260506032558 | 51 | 349 | 1.7 | 4.3 | 0.00 | 0.00 | 0.00 | 78 | 1013.4 |
| 20260506032058 | 51 | 326 | 0.9 | 7.0 | 0.00 | 0.00 | 0.00 | 78 | 1013.3 |
| 20260506031600 | 51 | 0 | 1.7 | 7.0 | 0.00 | 0.00 | 0.00 | 78 | 1013.4 |
| 20260506031058 | 51 | 77 | 1.7 | 4.3 | 0.00 | 0.00 | 0.00 | 78 | 1013.4 |
| 20260506030558 | 51 | 57 | 0.9 | 3.5 | 0.00 | 0.00 | 0.00 | 78 | 1013.4 |
| 20260506030056 | 51 | 50 | 0.0 | 2.6 | 0.00 | 0.00 | 0.00 | 78 | 1013.4 |
| 20260506025557 | 51 | 28 | 0.0 | 2.6 | 0.00 | 0.00 | 0.00 | 78 | 1013.4 |
| 20260506025058 | 51 | 16 | 0.9 | 2.6 | 0.00 | 0.00 | 0.00 | 77 | 1013.4 |
| 20260506024613 | 51 | 48 | 0.0 | 3.5 | 0.00 | 0.00 | 0.00 | 77 | 1013.4 |
| 20260506024058 | 51 | 0 | 0.0 | 4.3 | 0.00 | 0.00 | 0.00 | 77 | 1013.3 |
| 20260506023559 | 51 | 49 | 0.0 | 7.8 | 0.00 | 0.00 | 0.00 | 77 | 1013.5 |
| 20260506023058 | 51 | 39 | 1.7 | 7.8 | 0.00 | 0.00 | 0.00 | 76 | 1013.5 |
| 20260506022558 | 51 | 53 | 1.7 | 7.8 | 0.00 | 0.00 | 0.00 | 76 | 1013.4 |
| 20260506022058 | 51 | 37 | 1.7 | 4.3 | 0.00 | 0.00 | 0.00 | 77 | 1013.3 |
| 20260506021559 | 51 | 63 | 0.9 | 5.2 | 0.00 | 0.00 | 0.00 | 77 | 1013.4 |
| 20260506021102 | 51 | 40 | 0.9 | 5.2 | 0.00 | 0.00 | 0.00 | 77 | 1013.4 |
| 20260506020558 | 51 | 50 | 1.7 | 5.2 | 0.00 | 0.00 | 0.00 | 77 | 1013.3 |
| 20260506020123 | 51 | 21 | 1.7 | 5.2 | 0.00 | 0.00 | 0.00 | 77 | 1013.4 |
| 20260506015559 | 51 | 46 | 0.9 | 6.1 | 0.00 | 0.00 | 0.00 | 77 | 1013.4 |
| 20260506015058 | 51 | 89 | 1.7 | 6.1 | 0.00 | 0.00 | 0.00 | 77 | 1013.4 |
| 20260506014557 | 51 | 52 | 2.6 | 4.3 | 0.00 | 0.00 | 0.00 | 76 | 1013.4 |
| 20260506014100 | 51 | 68 | 0.9 | 5.2 | 0.00 | 0.00 | 0.00 | 76 | 1013.3 |
| 20260506013556 | 51 | 0 | 0.9 | 5.2 | 0.00 | 0.00 | 0.00 | 76 | 1013.4 |
| 20260506013057 | 51 | 98 | 0.0 | 5.2 | 0.00 | 0.00 | 0.00 | 76 | 1013.3 |
| 20260506012558 | 52 | 302 | 0.9 | 7.0 | 0.00 | 0.00 | 0.00 | 76 | 1013.5 |
| 20260506012102 | 52 | 44 | 0.9 | 7.0 | 0.00 | 0.00 | 0.00 | 76 | 1013.4 |
| 20260506011600 | 52 | 352 | 3.5 | 7.0 | 0.00 | 0.00 | 0.00 | 75 | 1013.4 |
| 20260506011058 | 52 | 325 | 1.7 | 7.8 | 0.00 | 0.00 | 0.00 | 75 | 1013.5 |
| 20260506010558 | 52 | 346 | 3.5 | 7.8 | 0.00 | 0.00 | 0.00 | 75 | 1013.4 |
| 20260506010058 | 52 | 346 | 4.3 | 7.8 | 0.00 | 0.00 | 0.00 | 75 | 1013.5 |
| 20260506005557 | 52 | 345 | 2.6 | 5.2 | 0.00 | 0.00 | 0.00 | 74 | 1013.5 |
| 20260506005057 | 52 | 12 | 1.7 | 4.3 | 0.00 | 0.00 | 0.00 | 74 | 1013.6 |
| 20260506004558 | 52 | 348 | 0.9 | 4.3 | 0.00 | 0.00 | 0.00 | 75 | 1013.6 |
| 20260506004058 | 52 | 327 | 2.6 | 7.8 | 0.00 | 0.00 | 0.00 | 73 | 1013.6 |
| 20260506003558 | 52 | 333 | 3.5 | 8.7 | 0.00 | 0.00 | 0.00 | 73 | 1013.6 |
| 20260506003058 | 52 | 360 | 4.3 | 9.6 | 0.00 | 0.00 | 0.00 | 73 | 1013.6 |
| 20260506002609 | 52 | 15 | 5.2 | 9.6 | 0.00 | 0.00 | 0.00 | 72 | 1013.7 |
| 20260506002058 | 52 | 352 | 3.5 | 7.8 | 0.00 | 0.00 | 0.00 | 73 | 1013.7 |
| 20260506001608 | 52 | 345 | 2.6 | 7.8 | 0.00 | 0.00 | 0.00 | 72 | 1013.7 |
| 20260506001058 | 52 | 13 | 3.5 | 7.8 | 0.00 | 0.00 | 0.00 | 72 | 1013.8 |
| 20260506000601 | 52 | 352 | 3.5 | 7.8 | 0.00 | 0.00 | 0.00 | 72 | 1013.7 |
| 20260506000124 | 52 | 29 | 4.3 | 8.7 | 0.00 | 0.00 | 0.00 | 72 | 1013.6 |
| 20260505235558 | 52 | 5 | 3.5 | 8.7 | 0.00 | 0.00 | 0.00 | 72 | 1013.6 |
| 20260505235058 | 52 | 333 | 5.2 | 8.7 | 0.00 | 0.00 | 0.00 | 72 | 1013.7 |
| 20260505234617 | 52 | 346 | 2.6 | 5.2 | 0.00 | 0.00 | 0.00 | 73 | 1013.7 |
| 20260505234058 | 52 | 27 | 3.5 | 5.2 | 0.00 | 0.00 | 0.00 | 73 | 1013.6 |
| 20260505233558 | 52 | 46 | 0.9 | 3.5 | 0.00 | 0.00 | 0.00 | 74 | 1013.7 |
| 20260505233100 | 52 | 360 | 0.9 | 2.6 | 0.00 | 0.00 | 0.00 | 74 | 1013.7 |
| 20260505232557 | 52 | 15 | 0.0 | 6.1 | 0.00 | 0.00 | 0.00 | 73 | 1013.7 |
| 20260505232058 | 52 | 0 | 0.9 | 6.1 | 0.00 | 0.00 | 0.00 | 73 | 1013.7 |
| 20260505231601 | 52 | 360 | 0.9 | 5.2 | 0.00 | 0.00 | 0.00 | 74 | 1013.7 |
| 20260505231058 | 52 | 15 | 1.7 | 5.2 | 0.00 | 0.00 | 0.00 | 73 | 1013.7 |
| 20260505230558 | 52 | 345 | 1.7 | 5.2 | 0.00 | 0.00 | 0.00 | 73 | 1013.7 |
| 20260505225600 | 52 | 346 | 0.9 | 3.5 | 0.00 | 0.00 | 0.00 | 74 | 1013.9 |
| 20260505225058 | 52 | 352 | 0.9 | 2.6 | 0.00 | 0.00 | 0.00 | 75 | 1014.0 |
| 20260505224611 | 52 | 340 | 0.9 | 2.6 | 0.00 | 0.00 | 0.00 | 74 | 1013.9 |
| 20260505224102 | 52 | 352 | 0.9 | 2.6 | 0.00 | 0.00 | 0.00 | 74 | 1013.9 |
| 20260505223558 | 52 | 352 | 0.9 | 2.6 | 0.00 | 0.00 | 0.00 | 74 | 1014.0 |
| 20260505223108 | 52 | 350 | 0.9 | 3.5 | 0.00 | 0.00 | 0.00 | 73 | 1013.9 |
| 20260505222557 | 52 | 333 | 0.9 | 3.5 | 0.00 | 0.00 | 0.00 | 73 | 1013.9 |
| 20260505222057 | 52 | 349 | 1.7 | 3.5 | 0.00 | 0.00 | 0.00 | 73 | 1013.9 |
| 20260505221603 | 52 | 0 | 0.9 | 5.2 | 0.00 | 0.00 | 0.00 | 72 | 1014.0 |
| 20260505221059 | 52 | 352 | 1.7 | 6.1 | 0.00 | 0.00 | 0.00 | 72 | 1013.9 |
| 20260505220558 | 53 | 350 | 2.6 | 7.0 | 0.00 | 0.00 | 0.00 | 72 | 1013.8 |
| 20260505220107 | 53 | 352 | 1.7 | 7.0 | 0.00 | 0.00 | 0.00 | 71 | 1013.9 |
| 20260505215600 | 53 | 329 | 2.6 | 7.0 | 0.00 | 0.00 | 0.00 | 71 | 1013.9 |
| 20260505215058 | 53 | 347 | 2.6 | 7.0 | 0.00 | 0.00 | 0.00 | 71 | 1013.9 |
| 20260505214612 | 53 | 30 | 3.5 | 7.0 | 0.00 | 0.00 | 0.00 | 71 | 1013.8 |
| 20260505214058 | 53 | 330 | 4.3 | 7.0 | 0.00 | 0.00 | 0.00 | 72 | 1013.9 |
| 20260505213600 | 53 | 348 | 2.6 | 7.0 | 0.00 | 0.00 | 0.00 | 71 | 1014.0 |
| 20260505213058 | 53 | 346 | 3.5 | 8.7 | 0.00 | 0.00 | 0.00 | 72 | 1014.0 |
| 20260505212557 | 52 | 333 | 3.5 | 8.7 | 0.00 | 0.00 | 0.00 | 71 | 1013.9 |
| 20260505212057 | 52 | 338 | 3.5 | 7.8 | 0.00 | 0.00 | 0.00 | 72 | 1014.0 |
| 20260505211641 | 52 | 340 | 3.5 | 7.8 | 0.00 | 0.00 | 0.00 | 72 | 1014.0 |
| 20260505211101 | 52 | 348 | 2.6 | 7.8 | 0.00 | 0.00 | 0.00 | 73 | 1013.9 |
| 20260505210558 | 52 | 26 | 2.6 | 7.8 | 0.00 | 0.00 | 0.00 | 73 | 1014.0 |
| 20260505210059 | 52 | 340 | 2.6 | 5.2 | 0.00 | 0.00 | 0.00 | 73 | 1013.9 |
| 20260505205558 | 52 | 332 | 1.7 | 5.2 | 0.00 | 0.00 | 0.00 | 72 | 1014.0 |
| 20260505205058 | 52 | 333 | 1.7 | 5.2 | 0.00 | 0.00 | 0.00 | 72 | 1014.0 |
| 20260505204605 | 52 | 333 | 0.9 | 4.3 | 0.00 | 0.00 | 0.00 | 72 | 1013.9 |
| 20260505204058 | 52 | 335 | 1.7 | 4.3 | 0.00 | 0.00 | 0.00 | 72 | 1013.9 |
| 20260505203558 | 52 | 350 | 1.7 | 5.2 | 0.00 | 0.00 | 0.00 | 71 | 1013.9 |
| 20260505203100 | 52 | 352 | 1.7 | 5.2 | 0.00 | 0.00 | 0.00 | 71 | 1014.0 |
| 20260505202601 | 52 | 338 | 2.6 | 7.0 | 0.00 | 0.00 | 0.00 | 71 | 1014.0 |
| 20260505202058 | 52 | 345 | 2.6 | 7.0 | 0.00 | 0.00 | 0.00 | 70 | 1013.8 |
| 20260505201559 | 52 | 343 | 2.6 | 7.0 | 0.00 | 0.00 | 0.00 | 70 | 1013.8 |
| 20260505201058 | 52 | 323 | 2.6 | 7.0 | 0.00 | 0.00 | 0.00 | 69 | 1013.8 |
| 20260505200558 | 52 | 352 | 1.7 | 7.8 | 0.00 | 0.00 | 0.00 | 69 | 1013.9 |
| 20260505200058 | 52 | 13 | 2.6 | 7.8 | 0.00 | 0.00 | 0.00 | 68 | 1013.8 |
| 20260505195558 | 53 | 331 | 2.6 | 7.0 | 0.00 | 0.00 | 0.00 | 67 | 1013.7 |
| 20260505195057 | 53 | 340 | 2.6 | 7.0 | 0.00 | 0.00 | 0.00 | 67 | 1013.5 |
| 20260505194600 | 53 | 352 | 3.5 | 7.0 | 0.00 | 0.00 | 0.00 | 66 | 1013.6 |
| 20260505194057 | 53 | 313 | 2.6 | 7.0 | 0.00 | 0.00 | 0.00 | 66 | 1013.5 |
| 20260505193558 | 54 | 352 | 1.7 | 7.0 | 0.00 | 0.00 | 0.00 | 65 | 1013.5 |
| 20260505193057 | 54 | 24 | 3.5 | 7.8 | 0.00 | 0.00 | 0.00 | 65 | 1013.4 |
| 20260505192600 | 54 | 15 | 2.6 | 7.8 | 0.00 | 0.00 | 0.00 | 64 | 1013.2 |
| 20260505192058 | 54 | 322 | 2.6 | 7.8 | 0.00 | 0.00 | 0.00 | 64 | 1013.2 |
| 20260505191605 | 55 | 337 | 4.3 | 9.6 | 0.00 | 0.00 | 0.00 | 64 | 1013.2 |
| 20260505191058 | 55 | 336 | 3.5 | 9.6 | 0.00 | 0.00 | 0.00 | 64 | 1013.2 |
| 20260505190601 | 55 | 13 | 4.3 | 9.6 | 0.00 | 0.00 | 0.00 | 64 | 1013.2 |
| 20260505190114 | 56 | 360 | 2.6 | 9.6 | 0.00 | 0.00 | 0.00 | 63 | 1013.2 |
| 20260505185558 | 56 | 352 | 3.5 | 9.6 | 0.00 | 0.00 | 0.00 | 62 | 1013.1 |
| 20260505185058 | 56 | 352 | 5.2 | 9.6 | 0.00 | 0.00 | 0.00 | 61 | 1013.1 |
| 20260505184559 | 56 | 19 | 4.3 | 9.6 | 0.00 | 0.00 | 0.00 | 61 | 1013.1 |
| 20260505184058 | 57 | 360 | 4.3 | 7.8 | 0.00 | 0.00 | 0.00 | 61 | 1013.2 |
| 20260505183557 | 57 | 311 | 2.6 | 7.0 | 0.00 | 0.00 | 0.00 | 61 | 1013.0 |
| 20260505183100 | 57 | 350 | 3.5 | 7.0 | 0.00 | 0.00 | 0.00 | 61 | 1013.1 |
| 20260505182558 | 57 | 343 | 3.5 | 7.0 | 0.00 | 0.00 | 0.00 | 60 | 1013.0 |
| 20260505182057 | 57 | 337 | 2.6 | 7.8 | 0.00 | 0.00 | 0.00 | 60 | 1013.1 |
| 20260505181642 | 57 | 340 | 1.7 | 7.8 | 0.00 | 0.00 | 0.00 | 59 | 1013.0 |
| 20260505181057 | 57 | 341 | 2.6 | 7.8 | 0.00 | 0.00 | 0.00 | 59 | 1013.0 |
| 20260505180645 | 57 | 340 | 3.5 | 7.0 | 0.00 | 0.00 | 0.00 | 59 | 1013.0 |
| 20260505180106 | 58 | 55 | 1.7 | 6.1 | 0.00 | 0.00 | 0.00 | 59 | 1013.1 |
| 20260505175558 | 58 | 336 | 2.6 | 7.8 | 0.00 | 0.00 | 0.00 | 59 | 1013.1 |
| 20260505175058 | 58 | 360 | 1.7 | 8.7 | 0.00 | 0.00 | 0.00 | 60 | 1013.0 |
| 20260505174558 | 58 | 5 | 3.5 | 8.7 | 0.00 | 0.00 | 0.00 | 58 | 1013.2 |
| 20260505174058 | 58 | 10 | 2.6 | 7.0 | 0.00 | 0.00 | 0.00 | 59 | 1013.3 |
| 20260505173558 | 58 | 5 | 2.6 | 8.7 | 0.00 | 0.00 | 0.00 | 58 | 1013.2 |
| 20260505173100 | 58 | 13 | 2.6 | 11.3 | 0.00 | 0.00 | 0.00 | 59 | 1013.2 |
| 20260505172557 | 58 | 32 | 6.1 | 11.3 | 0.00 | 0.00 | 0.00 | 59 | 1013.3 |
| 20260505172057 | 58 | 360 | 3.5 | 9.6 | 0.00 | 0.00 | 0.00 | 58 | 1013.3 |
| 20260505171604 | 58 | 360 | 3.5 | 8.7 | 0.00 | 0.00 | 0.00 | 58 | 1013.3 |
| 20260505171057 | 58 | 352 | 4.3 | 11.3 | 0.00 | 0.00 | 0.00 | 58 | 1013.3 |
| 20260505170558 | 58 | 41 | 2.6 | 11.3 | 0.00 | 0.00 | 0.00 | 58 | 1013.4 |
| 20260505170100 | 58 | 12 | 5.2 | 11.3 | 0.00 | 0.00 | 0.00 | 57 | 1013.4 |
| 20260505165559 | 58 | 20 | 4.3 | 11.3 | 0.00 | 0.00 | 0.00 | 57 | 1013.4 |
| 20260505165059 | 58 | 350 | 5.2 | 11.3 | 0.00 | 0.00 | 0.00 | 58 | 1013.4 |
| 20260505164600 | 59 | 328 | 4.3 | 11.3 | 0.00 | 0.00 | 0.00 | 59 | 1013.4 |
| 20260505164059 | 59 | 5 | 6.1 | 11.3 | 0.00 | 0.00 | 0.00 | 59 | 1013.4 |
| 20260505163601 | 59 | 334 | 4.3 | 8.7 | 0.00 | 0.00 | 0.00 | 59 | 1013.4 |
| 20260505163058 | 59 | 338 | 4.3 | 8.7 | 0.00 | 0.00 | 0.00 | 59 | 1013.4 |
| 20260505162558 | 60 | 338 | 4.3 | 8.7 | 0.00 | 0.00 | 0.00 | 57 | 1013.3 |
| 20260505162100 | 60 | 52 | 1.7 | 11.3 | 0.00 | 0.00 | 0.00 | 56 | 1013.3 |
| 20260505161559 | 60 | 12 | 5.2 | 11.3 | 0.00 | 0.00 | 0.00 | 54 | 1013.3 |
| 20260505161059 | 60 | 346 | 5.2 | 11.3 | 0.00 | 0.00 | 0.00 | 54 | 1013.3 |
| 20260505160559 | 60 | 29 | 5.2 | 9.6 | 0.00 | 0.00 | 0.00 | 53 | 1013.3 |
| 20260505153059 | 60 | 278 | 6.1 | 11.3 | 0.00 | 0.00 | 0.00 | 52 | 1013.4 |
| 20260505152558 | 61 | 343 | 5.2 | 10.4 | 0.00 | 0.00 | 0.00 | 56 | 1013.4 |
| 20260505152058 | 61 | 360 | 4.3 | 10.4 | 0.00 | 0.00 | 0.00 | 55 | 1013.5 |
| 20260505151605 | 61 | 333 | 4.3 | 11.3 | 0.00 | 0.00 | 0.00 | 54 | 1013.3 |
| 20260505151101 | 61 | 346 | 4.3 | 11.3 | 0.00 | 0.00 | 0.00 | 53 | 1013.4 |
| 20260505150558 | 61 | 24 | 5.2 | 10.4 | 0.00 | 0.00 | 0.00 | 53 | 1013.4 |
| 20260505140558 | 62 | 335 | 4.3 | 9.6 | 0.00 | 0.00 | 0.00 | 52 | 1013.5 |
| 20260505140110 | 62 | 327 | 2.6 | 9.6 | 0.00 | 0.00 | 0.00 | 54 | 1013.5 |
| 20260505130110 | 63 | 352 | 4.3 | 8.7 | 0.00 | 0.00 | 0.00 | 53 | 1013.4 |
| 20260505124624 | 62 | 64 | 2.6 | 9.6 | 0.00 | 0.00 | 0.00 | 54 | 1013.6 |
| 20260505124058 | 62 | 326 | 5.2 | 9.6 | 0.00 | 0.00 | 0.00 | 52 | 1013.7 |
| 20260505123558 | 62 | 54 | 2.6 | 10.4 | 0.00 | 0.00 | 0.00 | 54 | 1013.6 |
| 20260505123117 | 63 | 57 | 5.2 | 10.4 | 0.00 | 0.00 | 0.00 | 53 | 1013.7 |
| 20260505122558 | 63 | 324 | 2.6 | 10.4 | 0.00 | 0.00 | 0.00 | 56 | 1013.8 |
| 20260505122059 | 63 | 315 | 2.6 | 11.3 | 0.00 | 0.00 | 0.00 | 53 | 1013.7 |
| 20260505121604 | 63 | 334 | 5.2 | 11.3 | 0.00 | 0.00 | 0.00 | 55 | 1013.7 |
| 20260505121059 | 63 | 320 | 4.3 | 11.3 | 0.00 | 0.00 | 0.00 | 53 | 1013.7 |
| 20260505120557 | 63 | 27 | 5.2 | 11.3 | 0.00 | 0.00 | 0.00 | 57 | 1013.7 |
| 20260505120124 | 63 | 360 | 4.3 | 11.3 | 0.00 | 0.00 | 0.00 | 54 | 1013.8 |
| 20260505115559 | 63 | 342 | 4.3 | 12.2 | 0.00 | 0.00 | 0.00 | 56 | 1013.7 |
| 20260505115059 | 63 | 11 | 7.0 | 12.2 | 0.00 | 0.00 | 0.00 | 53 | 1013.8 |
| 20260505114559 | 63 | 316 | 5.2 | 11.3 | 0.00 | 0.00 | 0.00 | 53 | 1013.9 |
| 20260505114059 | 62 | 327 | 2.6 | 13.0 | 0.00 | 0.00 | 0.00 | 55 | 1013.9 |
| 20260505113603 | 62 | 79 | 6.1 | 13.0 | 0.00 | 0.00 | 0.00 | 54 | 1013.9 |